Showing default

RESOURCESAT 2A, 41877

Orbit data source: Space-Track

RESOURCESAT 2A, 41877 is a payload satellite owned by ISRO (IN) in SSO that was launched on Wed, 07 Dec 2016 UTC via a PSLV-XL launch vehicle from the Sirharikota (SRI). Payload-class satellites include a variety of spacecraft equipped with specific instruments for various scientific and technological missions. These include communications satellites like Starlink; space stations such as the ISS; scientific satellites like the Hubble; Earth observation satellites from companies like Planet Labs, Umbra, and HawkEye 360; GPS; miniature CubeSats for education and research; and military/defense satellites.

Loading next visibility...
Identifier
41877, 2016-074A
Orbit
SSO
Country
Flag of ININ / IND
Related business
Manufacturer
ISAC/HAL
Mission
Operational Civil Imaging
Bus & Motor
IRS, AOCS
Mass
1,235 kg wet, ~1,100 kg dry
Launch date (UTC)
2016-12-07 (10 years ago)
Launch vehicle
PSLV-XL
Launch site
Sirharikota (SRI)
Object type
Payload
Rocket body
Debris
Shape & HBR
Box + 2 Pan, 6.0 m
Radar Cross Section
12.977 m², Large (>1 m²)

Expand to show TLE details & history
Last TLE update: 22 hours ago

TLE from 22 hours ago
0 RESOURCESAT 2A
1 41877U 16074A   26172.50486874  .00000122  00000-0  75879-4 0  9990
2 41877  98.7521 245.9744 0003304  76.6022 283.5524 14.21617870494912
Epoch: 2026-06-21T12:07Z
TLE epoch observation values (Epoch: 2026-06-21T12:07:00.659Z)
Latitude
0.00006°
Longitude
154.51746°
Altitude
822.245 km
Speed
7.442 km/s
True Right ascension
16h 23m 53s
True Declination
0° 00' 00"
Sunlit
Object was in full shadow at epoch
Visualization orbit readout
Latitude
Unknown
Longitude
Unknown
Altitude
Unknown
Speed
Unknown
Apparent Right ascension
Unknown
Apparent Declination
Unknown
Sunlit
N/A
Visualization observer readout
Local Sidereal Time
21:36:37
Azimuth
Unknown
Elevation
Unknown
Doppler factor
Unknown
Orbital elements
Apogee altitude
819.422 km
Perigee altitude
814.668 km
Semi-major axis
7,195.182 km
Eccentricity
0.00033
Inclination
98.7521°
RAAN
245.9744°
Arg. of periapsis
76.6022°
True anomaly
283.51559°
Mean anomaly
283.5524°
Eccentric anomaly
283.534°
Mean motion
3.55615 °/min
Orbital period
101.23 mins
BSTAR
0.000075879
Loading maneuver chart data...
Computing Atmospheric mass density...
Loading historical data...
Loading historical data...
Loading historical data...
Loading historical data...
Loading historical data...
Loading historical data...
Loading historical data...
Other satellites on launch #74 in the year 2016 (2016-12-07 UTC)

Documentation

Showing up to 5 results
|